This is the latest recevied weather packets stored in our database for station/object KD4MBW. If no packets are shown the sender has not sent any weather packets the latest 10 day(s).
| Time | Temp. | Humidity | Pressure | Rain* | Wind** | Luminosity | Snow |
|---|---|---|---|---|---|---|---|
| 1777661614 | 21.67° C | 89% | 1012.3 hPa | 0 mm | - | 158 W/m² | - |
| 1777661310 | 21.67° C | 88% | 1012.3 hPa | 0 mm | - | 102 W/m² | - |
| 1777661006 | 22.22° C | 87% | 1012.6 hPa | 0 mm | - | 79 W/m² | - |
| 1777660701 | 22.78° C | 87% | 1012.5 hPa | 0 mm | - | 73 W/m² | - |
| 1777660399 | 22.78° C | 87% | 1012.4 hPa | 0 mm | - | 72 W/m² | - |
| 1777660095 | 23.33° C | 85% | 1012.6 hPa | 0 mm | - | 87 W/m² | - |
| 1777659792 | 23.33° C | 86% | 1012.5 hPa | 0 mm | - | 79 W/m² | - |
| 1777659489 | 23.33° C | 84% | 1012.2 hPa | 0 mm | - | 116 W/m² | - |
| 1777659186 | 23.89° C | 85% | 1012.2 hPa | 0 mm | - | 133 W/m² | - |
| 1777658883 | 23.89° C | 84% | 1012.2 hPa | 0 mm | - | 332 W/m² | - |
| 1777658579 | 23.33° C | 86% | 1012 hPa | 0 mm | - | 393 W/m² | - |
| 1777658276 | 23.33° C | 87% | 1012 hPa | 0 mm | - | 262 W/m² | - |
| 1777657974 | 23.33° C | 86% | 1012 hPa | 0 mm | - | 302 W/m² | - |
| 1777657670 | 22.78° C | 88% | 1012.3 hPa | 0 mm | - | 280 W/m² | - |
| 1777657367 | 22.78° C | 89% | 1012.4 hPa | 0 mm | - | 256 W/m² | - |
| 1777657065 | 22.22° C | 91% | 1012.3 hPa | 1.27 mm | - | 198 W/m² | - |
| 1777656762 | 22.22° C | 91% | 1012.4 hPa | 1.27 mm | - | 190 W/m² | - |
| 1777656458 | 22.22° C | 91% | 1012.4 hPa | 0 mm | - | 168 W/m² | - |
| 1777656153 | 22.22° C | 89% | 1012.3 hPa | 0 mm | - | 124 W/m² | - |
| 1777655849 | 22.78° C | 88% | 1012.7 hPa | 0 mm | - | 68 W/m² | - |
| 1777655546 | 22.78° C | 87% | 1013.1 hPa | 0 mm | - | 38 W/m² | - |
| 1777655243 | 22.78° C | 87% | 1012.7 hPa | 0 mm | - | 36 W/m² | - |
| 1777654940 | 22.78° C | 86% | 1012.7 hPa | 0 mm | - | 42 W/m² | - |
| 1777654637 | 22.78° C | 85% | 1012.8 hPa | 0 mm | - | 72 W/m² | - |
| 1777654335 | 22.78° C | 85% | 1013.1 hPa | 0 mm | - | 123 W/m² | - |
* Rain latest hour (hover to see other rain measurements)
** Current wind speed in m/s (hover to see current wind gust speed)